Location: City of Moscow
(46.7306°N, 116.9989°W)
Time: 05:35:24
(UTC+00:00)

Orbus 7S? - Pass Details

Date: 24 March 2026
Orbit: 354 x 6170 km, 56.9° (Epoch: 30 September)

Event Time Altitude Azimuth Distance (km) Brightness Sun altitude
Rises 13:09:19 0° 215° (SW) 10,525 9.4 -6.5°
Reaches altitude 10° 13:16:53 10° 215° (SW) 9,650 9.2 -5.2°
Maximum altitude 13:54:55 83° 135° (SE) 4,518 8.1 1.3°
Drops below altitude 10° 14:12:53 10° 52° (NE) 5,212 9.2 4.3°
Sets 14:15:36 0° 52° (NE) 5,745 9.4 4.8°
